TimeEST,TemperatureF,Dew PointF,Humidity,Sea Level PressureIn,VisibilityMPH,Wind Direction,Wind SpeedMPH,Gust SpeedMPH,PrecipitationIn,Events,Conditions,WindDirDegrees,DateUTC
12:54 AM,34.0,10.9,38,30.42,10.0,Calm,Calm,-,N/A,,Overcast,0,2008-11-23 05:54:00
1:54 AM,33.1,15.1,48,30.41,10.0,Calm,Calm,-,N/A,,Overcast,0,2008-11-23 06:54:00
2:54 AM,32.0,17.1,54,30.43,10.0,NNW,3.5,-,N/A,,Overcast,340,2008-11-23 07:54:00
3:54 AM,30.9,15.1,52,30.43,10.0,North,4.6,-,N/A,,Overcast,350,2008-11-23 08:54:00
4:54 AM,28.0,16.0,61,30.44,10.0,North,4.6,-,N/A,,Partly Cloudy,350,2008-11-23 09:54:00
5:54 AM,27.0,15.1,61,30.45,10.0,Calm,Calm,-,N/A,,Clear,0,2008-11-23 10:54:00
6:54 AM,25.0,15.1,66,30.46,10.0,Calm,Calm,-,N/A,,Clear,0,2008-11-23 11:54:00
7:54 AM,26.1,17.1,69,30.48,10.0,Calm,Calm,-,N/A,,Clear,0,2008-11-23 12:54:00
8:54 AM,32.0,17.1,54,30.47,10.0,Calm,Calm,-,N/A,,Clear,0,2008-11-23 13:54:00
9:54 AM,36.0,16.0,44,30.47,10.0,Calm,Calm,-,N/A,,Clear,0,2008-11-23 14:54:00
10:54 AM,39.9,14.0,35,30.46,10.0,Calm,Calm,-,N/A,,Clear,0,2008-11-23 15:54:00
11:54 AM,45.0,12.9,27,30.42,10.0,ENE,3.5,-,N/A,,Clear,60,2008-11-23 16:54:00
12:54 PM,46.0,12.0,25,30.40,10.0,Variable,3.5,-,N/A,,Clear,0,2008-11-23 17:54:00
1:54 PM,48.0,12.0,24,30.35,10.0,SSE,4.6,-,N/A,,Clear,160,2008-11-23 18:54:00
2:54 PM,48.9,10.0,21,30.33,10.0,SSE,8.1,-,N/A,,Clear,150,2008-11-23 19:54:00
3:54 PM,48.9,12.0,23,30.34,10.0,ESE,5.8,-,N/A,,Clear,120,2008-11-23 20:54:00
4:54 PM,46.9,15.1,28,30.35,10.0,SE,6.9,-,N/A,,Clear,140,2008-11-23 21:54:00
5:54 PM,42.1,15.1,34,30.37,10.0,South,4.6,-,N/A,,Clear,180,2008-11-23 22:54:00
6:54 PM,39.9,16.0,38,30.38,10.0,Calm,Calm,-,N/A,,Clear,0,2008-11-23 23:54:00
7:54 PM,37.0,17.1,44,30.39,10.0,Calm,Calm,-,N/A,,Clear,0,2008-11-24 00:54:00
8:54 PM,36.0,18.0,48,30.39,10.0,SE,3.5,-,N/A,,Clear,140,2008-11-24 01:54:00
9:54 PM,32.0,18.0,56,30.38,10.0,Calm,Calm,-,N/A,,Clear,0,2008-11-24 02:54:00
10:54 PM,28.0,19.0,69,30.38,10.0,South,3.5,-,N/A,,Clear,180,2008-11-24 03:54:00
11:54 PM,26.1,19.0,75,30.36,10.0,Calm,Calm,-,N/A,,Clear,0,2008-11-24 04:54:00